TimeEDT,TemperatureF,Dew PointF,Humidity,Sea Level PressureIn,VisibilityMPH,Wind Direction,Wind SpeedMPH,Gust SpeedMPH,PrecipitationIn,Events,Conditions,WindDirDegrees,DateUTC
12:15 AM,59.9,59.2,97,30.07,10.0,Calm,Calm,-,N/A,,Clear,0,2014-08-16 04:15:00
12:35 AM,59.4,58.8,98,30.06,10.0,Calm,Calm,-,N/A,,Clear,0,2014-08-16 04:35:00
12:55 AM,59.2,58.6,98,30.06,7.0,Calm,Calm,-,N/A,,Clear,0,2014-08-16 04:55:00
1:15 AM,58.1,57.4,97,30.06,7.0,Calm,Calm,-,N/A,,Clear,0,2014-08-16 05:15:00
1:35 AM,57.7,57.4,99,30.06,5.0,Calm,Calm,-,N/A,,Clear,0,2014-08-16 05:35:00
1:55 AM,57.6,57.4,99,30.06,5.0,Calm,Calm,-,N/A,,Clear,0,2014-08-16 05:55:00
2:15 AM,57.2,56.8,99,30.06,5.0,Calm,Calm,-,N/A,,Clear,0,2014-08-16 06:15:00
2:35 AM,56.8,56.5,99,30.06,5.0,Calm,Calm,-,N/A,,Clear,0,2014-08-16 06:35:00
2:55 AM,56.7,56.3,99,30.06,7.0,Calm,Calm,-,N/A,,Clear,0,2014-08-16 06:55:00
3:15 AM,56.5,56.3,99,30.06,4.0,Calm,Calm,-,N/A,,Clear,0,2014-08-16 07:15:00
3:35 AM,55.8,55.6,99,30.06,4.0,Calm,Calm,-,N/A,,Clear,0,2014-08-16 07:35:00
3:55 AM,56.1,55.9,99,30.06,5.0,Calm,Calm,-,N/A,,Clear,0,2014-08-16 07:55:00
4:15 AM,55.4,55.2,99,30.06,0.8,Calm,Calm,-,N/A,,Mist,0,2014-08-16 08:15:00
4:35 AM,54.5,54.5,100,30.06,1.5,Calm,Calm,-,N/A,,Mist,0,2014-08-16 08:35:00
4:55 AM,54.7,54.7,100,30.07,0.8,Calm,Calm,-,N/A,,Overcast,0,2014-08-16 08:55:00
5:15 AM,55.2,55.2,100,30.07,0.5,Calm,Calm,-,N/A,Fog,Fog,0,2014-08-16 09:15:00
5:35 AM,54.9,54.9,100,30.07,0.2,Calm,Calm,-,N/A,Fog,Fog,0,2014-08-16 09:35:00
6:00 AM,55.0,55.0,100,30.08,0.2,Calm,Calm,-,N/A,Fog,Fog,0,2014-08-16 10:00:00
6:15 AM,55.4,55.4,100,30.08,0.5,Calm,Calm,-,N/A,Fog,Fog,0,2014-08-16 10:15:00
6:35 AM,54.5,54.5,100,30.08,0.5,Calm,Calm,-,N/A,Fog,Fog,0,2014-08-16 10:35:00
6:55 AM,54.5,54.5,100,30.09,2.5,Calm,Calm,-,N/A,,Scattered Clouds,0,2014-08-16 10:55:00
7:15 AM,53.8,53.8,100,30.10,0.2,Calm,Calm,-,N/A,Fog,Fog,0,2014-08-16 11:15:00
7:35 AM,54.7,54.7,100,30.11,1.0,Calm,Calm,-,N/A,,Mostly Cloudy,0,2014-08-16 11:35:00
7:55 AM,56.1,56.1,100,30.11,2.5,Calm,Calm,-,N/A,,Scattered Clouds,0,2014-08-16 11:55:00
8:15 AM,57.2,57.2,100,30.11,5.0,Calm,Calm,-,N/A,,Clear,0,2014-08-16 12:15:00
8:35 AM,58.8,58.6,99,30.11,7.0,Calm,Calm,-,N/A,,Clear,0,2014-08-16 12:35:00
8:55 AM,60.3,59.4,97,30.12,10.0,Calm,Calm,-,N/A,,Clear,0,2014-08-16 12:55:00
9:15 AM,61.7,60.1,94,30.12,10.0,Calm,Calm,-,N/A,,Clear,0,2014-08-16 13:15:00
9:35 AM,63.5,60.8,91,30.11,10.0,Calm,Calm,-,N/A,,Clear,0,2014-08-16 13:35:00
9:55 AM,65.5,62.4,90,30.11,10.0,Calm,Calm,-,N/A,,Clear,0,2014-08-16 13:55:00
10:15 AM,66.6,62.6,87,30.11,10.0,WSW,3.5,-,N/A,,Clear,240,2014-08-16 14:15:00
10:35 AM,68.5,63.0,82,30.11,10.0,West,3.5,-,N/A,,Clear,260,2014-08-16 14:35:00
10:55 AM,70.5,63.0,77,30.11,10.0,WSW,3.5,-,N/A,,Clear,240,2014-08-16 14:55:00
11:15 AM,73.0,62.8,70,30.11,10.0,Calm,Calm,-,N/A,,Clear,0,2014-08-16 15:15:00
11:35 AM,74.8,64.2,69,30.11,10.0,Calm,Calm,-,N/A,,Clear,0,2014-08-16 15:35:00
11:55 AM,76.6,65.5,68,30.11,10.0,West,3.5,-,N/A,,Clear,260,2014-08-16 15:55:00
12:15 PM,77.2,64.9,66,30.11,10.0,WSW,3.5,-,N/A,,Clear,250,2014-08-16 16:15:00
12:35 PM,78.4,64.8,63,30.11,10.0,West,3.5,-,N/A,,Clear,270,2014-08-16 16:35:00
12:55 PM,77.9,65.5,65,30.11,10.0,West,5.8,-,N/A,,Clear,260,2014-08-16 16:55:00
1:15 PM,77.9,64.2,63,30.11,10.0,WSW,3.5,-,N/A,,Clear,240,2014-08-16 17:15:00
1:35 PM,78.1,64.8,63,30.11,10.0,WSW,5.8,-,N/A,,Scattered Clouds,250,2014-08-16 17:35:00
1:55 PM,77.9,63.9,62,30.10,10.0,Calm,Calm,-,N/A,,Scattered Clouds,0,2014-08-16 17:55:00
2:15 PM,78.1,64.6,63,30.10,10.0,Calm,Calm,-,N/A,,Clear,0,2014-08-16 18:15:00
2:35 PM,77.9,63.5,61,30.10,10.0,Calm,Calm,-,N/A,,Scattered Clouds,0,2014-08-16 18:35:00
2:55 PM,79.7,63.7,58,30.10,10.0,Calm,Calm,-,N/A,,Mostly Cloudy,0,2014-08-16 18:55:00
3:15 PM,79.0,62.8,57,30.09,10.0,Calm,Calm,-,N/A,,Overcast,0,2014-08-16 19:15:00
3:35 PM,78.8,65.1,63,30.09,10.0,Calm,Calm,-,N/A,,Mostly Cloudy,0,2014-08-16 19:35:00
3:55 PM,81.9,65.1,57,30.08,10.0,SE,3.5,-,N/A,,Mostly Cloudy,140,2014-08-16 19:55:00
4:15 PM,81.5,64.2,56,30.07,10.0,Calm,Calm,-,N/A,,Mostly Cloudy,0,2014-08-16 20:15:00
4:55 PM,80.1,64.0,58,30.07,10.0,Calm,Calm,-,N/A,,Scattered Clouds,0,2014-08-16 20:55:00
5:15 PM,80.1,63.9,58,30.06,10.0,Calm,Calm,-,N/A,,Mostly Cloudy,0,2014-08-16 21:15:00
5:35 PM,81.3,63.7,55,30.06,10.0,SSW,4.6,-,N/A,,Overcast,200,2014-08-16 21:35:00
5:55 PM,79.7,63.7,58,30.06,10.0,WSW,5.8,-,N/A,,Scattered Clouds,250,2014-08-16 21:55:00
6:15 PM,80.6,64.2,57,30.06,10.0,Calm,Calm,-,N/A,,Clear,0,2014-08-16 22:15:00
6:35 PM,79.9,64.8,60,30.06,10.0,Calm,Calm,-,N/A,,Clear,0,2014-08-16 22:35:00
6:55 PM,77.5,66.2,68,30.06,10.0,Calm,Calm,-,N/A,,Clear,0,2014-08-16 22:55:00
7:15 PM,74.7,67.3,78,30.06,10.0,NNW,3.5,-,N/A,,Clear,330,2014-08-16 23:15:00
7:35 PM,73.9,67.6,81,30.07,10.0,Calm,Calm,-,N/A,,Clear,0,2014-08-16 23:35:00
7:55 PM,73.4,68.2,84,30.07,10.0,Calm,Calm,-,N/A,,Clear,0,2014-08-16 23:55:00
8:15 PM,71.2,68.4,91,30.08,10.0,Calm,Calm,-,N/A,,Clear,0,2014-08-17 00:15:00
8:35 PM,70.9,68.2,91,30.07,10.0,Calm,Calm,-,N/A,,Clear,0,2014-08-17 00:35:00
8:55 PM,69.8,67.3,92,30.08,10.0,Calm,Calm,-,N/A,,Clear,0,2014-08-17 00:55:00
9:15 PM,69.3,67.1,93,30.08,10.0,Calm,Calm,-,N/A,,Clear,0,2014-08-17 01:15:00
9:35 PM,68.4,67.1,96,30.08,10.0,Calm,Calm,-,N/A,,Clear,0,2014-08-17 01:35:00
9:55 PM,68.2,66.2,93,30.09,10.0,Calm,Calm,-,N/A,,Clear,0,2014-08-17 01:55:00
10:15 PM,67.5,66.2,96,30.09,10.0,Calm,Calm,-,N/A,,Clear,0,2014-08-17 02:15:00
10:35 PM,66.7,65.7,96,30.09,10.0,Calm,Calm,-,N/A,,Clear,0,2014-08-17 02:35:00
10:55 PM,66.0,64.2,94,30.09,10.0,Calm,Calm,-,N/A,,Clear,0,2014-08-17 02:55:00
11:15 PM,64.9,63.9,96,30.09,10.0,Calm,Calm,-,N/A,,Clear,0,2014-08-17 03:15:00
11:35 PM,64.6,63.7,97,30.09,10.0,Calm,Calm,-,N/A,,Clear,0,2014-08-17 03:35:00
11:55 PM,64.6,64.0,98,30.10,7.0,Calm,Calm,-,N/A,,Clear,0,2014-08-17 03:55:00